Regional Weather Roundup
Issued by NWS Spokane, WA

Home | Current Version | Previous Version | Text Only | Print | Product List | Glossary On
Versions: 1 2 3 4 5 6 7 8 9 10 11 12 13 14 15 16 17 18 19 20 21 22 23 24 25 26 27 28 29 30 31 32 33 34 35 36 37 38 39 40 41 42 43 44 45 46 47 48 49 50
099
NZUS01 KOTX 292000
RWROTX
EASTERN WASHINGTON/NORTHERN IDAHO ROUNDUP
NATIONAL WEATHER SERVICE, SPOKANE WA
100 PM PDT FRI APR 29 2016

Note: "fair" indicated few or no clouds below 12,000 feet with no
significant weather and/or obstructions to visibility.

...NORTHEAST WASHINGTON AND NORTHERN IDAHO PANHANDLE...

CITY           SKY/WX    TMP DP  RH WIND       PRES   REMARKS
SPOKANE INTL   LGT RAIN  50  40  68 SE3       29.95S
SPOKANE DOWNTO CLOUDY    53  37  54 SE3       29.96S
COEUR D ALENE  CLOUDY    52  37  58 W7        29.92S
DEER PARK      LGT RAIN  50  43  77 SW5       29.96R
SANDPOINT      CLOUDY    52  37  58 W6        29.93F

...SOUTHEAST WASHINGTON AND SOUTHERN IDAHO PANHANDLE...

CITY           SKY/WX    TMP DP  RH WIND       PRES   REMARKS
WALLA WALLA    CLOUDY    54  43  66 SW13      29.97R
PULLMAN/MOSCOW LGT RAIN  47  43  86 W10       29.96S
LOWELL           N/A     49  45  86 N5        29.96R

...COLUMBIA BASIN...

CITY           SKY/WX    TMP DP  RH WIND       PRES   REMARKS
EPHRATA        PTSUNNY   60  44  55 VRB3      29.93F
MOSES LAKE     CLOUDY    57  46  66 S5        29.95S
TRI CITIES     LGT RAIN  61  44  53 NW15G21   29.96R
HERMISTON      CLOUDY    60  41  49 W14G24    29.96S
PENDLETON      CLOUDY    56  38  50 W18       29.97S

...EAST SLOPES CASCADES...

CITY           SKY/WX    TMP DP  RH WIND       PRES   REMARKS
THE DALLES     CLOUDY    63  38  39 NW22G36   30.03S
YAKIMA         CLOUDY    61  38  42 NW17      29.97R
ELLENSBURG     CLOUDY    55  36  48 NW30G38   29.96S
STAMPEDE PASS  FOG       38  36  92 VRB7      30.04R VSB 1/4
WENATCHEE      PTSUNNY   64  35  34 W17       29.93F
OMAK           PTSUNNY   61  42  49 VRB3      29.92F

...SOUTHERN BRITISH COLUMBIA...

CITY           SKY/WX    TMP DP  RH WIND       PRES   REMARKS

...WESTERN MONTANA...

CITY           SKY/WX    TMP DP  RH WIND       PRES   REMARKS
MISSOULA       CLOUDY    51  31  46 SW7       29.90F

...NEIGHBORING CITIES...

CITY           SKY/WX    TMP DP  RH WIND       PRES   REMARKS
SEATTLE        PTSUNNY   56  43  61 VRB5      30.14S



USA.gov is the U.S. government's official web portal to all federal, state and local government web resources and services.